Location: Darmstadt
(49.8706°N, 8.6494°E)
Time: 06:57:24
(UTC+01:00)

Ariane Rocket - Pass Details

Date: 31 October 2020
Orbit: 759 x 771 km, 98.7° (Epoch: 03 December)

Event Time Altitude Azimuth Distance (km) Brightness Sun altitude
Exits shadow 19:19:43 32° 35° (NE) 1,311 3.9 -22.3°
Drops below altitude 10° 19:23:10 10° 359° (N) 2,324 5.5 -22.9°
Sets 19:25:37 0° 351° (N) 3,254 6.4 -23.3°
